TUNAIR4 LIMC-EDDG

Flight info

Callsign TUNAIR4
Flight time N/A
Altitude 38000
Route PEPAG DCT CANNE Z651 ZUE T163 KOVAN/N0446F390 Y712 LBU/N0442F380 N851 RIMKI Z99 LOHRE Z850 HMM
Aircraft A20N/M-SDE2E3FGHIRWXY/LB1

Departure

Time N/A
Airport Milan Malpensa International Airport (LIMC)

Arrival

Time 2026-05-07 09:41
Airport Münster Osnabrück Airport (EDDG)
Time Latitude Longitude Altitude Speed Heading
2026-05-07 07:56 45.63312 8.71379 0 ft 0 kts 169°
2026-05-07 08:14 45.63309 8.71380 0 ft 3 kts 169°
2026-05-07 08:15 45.63260 8.71395 0 ft 9 kts 159°
2026-05-07 08:15 45.63246 8.71431 0 ft 4 kts 93°
2026-05-07 08:15 45.63251 8.71477 0 ft 8 kts 79°
2026-05-07 08:15 45.63268 8.71586 0 ft 15 kts 77°
2026-05-07 08:16 45.63294 8.71758 0 ft 21 kts 79°
2026-05-07 08:16 45.63220 8.71876 0 ft 21 kts 169°
2026-05-07 08:16 45.63115 8.71903 0 ft 26 kts 169°
2026-05-07 08:16 45.62912 8.71959 0 ft 33 kts 169°
2026-05-07 08:17 45.62660 8.72028 0 ft 40 kts 169°
2026-05-07 08:17 45.62369 8.72109 0 ft 45 kts 169°
2026-05-07 08:17 45.61948 8.72222 0 ft 46 kts 168°
2026-05-07 08:17 45.61692 8.72297 0 ft 24 kts 169°
2026-05-07 08:18 45.61620 8.72317 0 ft 1 kts 168°
2026-05-07 08:18 45.61611 8.72319 0 ft 3 kts 168°
2026-05-07 08:18 45.61569 8.72331 0 ft 10 kts 169°
2026-05-07 08:18 45.61481 8.72355 0 ft 16 kts 171°
2026-05-07 08:19 45.61372 8.72318 0 ft 17 kts 215°
2026-05-07 08:19 45.61257 8.72276 0 ft 18 kts 200°
2026-05-07 08:19 45.61131 8.72250 0 ft 19 kts 170°
2026-05-07 08:19 45.60981 8.72294 0 ft 24 kts 169°
2026-05-07 08:20 45.60799 8.72345 0 ft 28 kts 169°
2026-05-07 08:20 45.60641 8.72468 0 ft 26 kts 104°
2026-05-07 08:20 45.60621 8.72721 0 ft 26 kts 94°
2026-05-07 08:20 45.60605 8.72978 0 ft 26 kts 96°
2026-05-07 08:21 45.60609 8.73233 0 ft 25 kts 57°
2026-05-07 08:21 45.60749 8.73344 0 ft 23 kts 22°
2026-05-07 08:21 45.60901 8.73405 0 ft 22 kts 357°
2026-05-07 08:21 45.61048 8.73368 0 ft 22 kts 349°
2026-05-07 08:22 45.61196 8.73329 0 ft 22 kts 349°
2026-05-07 08:22 45.61342 8.73284 0 ft 21 kts 347°
2026-05-07 08:22 45.61480 8.73247 0 ft 18 kts 348°
2026-05-07 08:22 45.61586 8.73216 0 ft 13 kts 348°
2026-05-07 08:23 45.61658 8.73195 0 ft 8 kts 349°
2026-05-07 08:23 45.61699 8.73188 0 ft 4 kts
2026-05-07 08:23 45.61714 8.73203 0 ft 2 kts 58°
2026-05-07 08:23 45.61725 8.73242 0 ft 3 kts 93°
2026-05-07 08:24 45.61713 8.73273 0 ft 8 kts 124°
2026-05-07 08:24 45.61660 8.73392 0 ft 20 kts 121°
2026-05-07 08:24 45.61589 8.73601 0 ft 23 kts 98°
2026-05-07 08:24 45.61654 8.73725 0 ft 12 kts
2026-05-07 08:25 45.61687 8.73720 0 ft 1 kts 350°
2026-05-07 08:25 45.61826 8.73684 0 ft 55 kts 349°
2026-05-07 08:25 45.62432 8.73512 0 ft 123 kts 348°
2026-05-07 08:26 45.64351 8.72955 0 ft 115 kts 348°
2026-05-07 08:26 45.65213 8.72703 0 ft 152 kts 342°
2026-05-07 08:26 45.66293 8.72095 0 ft 173 kts 350°
2026-05-07 08:27 45.67504 8.72081 0 ft 175 kts
2026-05-07 08:27 45.68780 8.72140 0 ft 195 kts
2026-05-07 08:27 45.70232 8.72196 0 ft 224 kts
2026-05-07 08:27 45.71911 8.72261 0 ft 261 kts
2026-05-07 08:28 45.73880 8.72341 0 ft 301 kts
2026-05-07 08:28 45.75990 8.72426 0 ft 304 kts
2026-05-07 08:28 45.78124 8.72514 0 ft 309 kts
2026-05-07 08:28 45.80286 8.72603 0 ft 313 kts
2026-05-07 08:29 45.82475 8.72695 0 ft 317 kts 350°
2026-05-07 08:29 45.84584 8.72119 0 ft 311 kts 352°
2026-05-07 08:29 45.86714 8.71424 0 ft 320 kts 339°
2026-05-07 08:29 45.88780 8.70160 0 ft 325 kts 335°
2026-05-07 08:30 45.90877 8.68897 0 ft 329 kts 343°
2026-05-07 08:30 45.93144 8.68397 0 ft 329 kts 354°
2026-05-07 08:30 45.95407 8.68187 0 ft 317 kts 359°
2026-05-07 08:30 45.97544 8.68208 0 ft 299 kts
2026-05-07 08:31 45.99565 8.68312 0 ft 282 kts
2026-05-07 08:31 46.01471 8.68448 0 ft 268 kts
2026-05-07 08:31 46.03294 8.68592 0 ft 255 kts
2026-05-07 08:31 46.05035 8.68737 0 ft 253 kts
2026-05-07 08:32 46.06804 8.68886 0 ft 256 kts
2026-05-07 08:32 46.08562 8.69033 0 ft 257 kts
2026-05-07 08:32 46.10352 8.69178 0 ft 259 kts
2026-05-07 08:32 46.12177 8.69323 0 ft 260 kts
2026-05-07 08:33 46.13989 8.69464 0 ft 262 kts
2026-05-07 08:33 46.15812 8.69605 0 ft 263 kts
2026-05-07 08:33 46.17624 8.69742 0 ft 265 kts
2026-05-07 08:33 46.19469 8.69877 0 ft 266 kts
2026-05-07 08:34 46.21322 8.70011 0 ft 268 kts
2026-05-07 08:34 46.23192 8.70144 0 ft 269 kts
2026-05-07 08:34 46.25065 8.70276 0 ft 271 kts
2026-05-07 08:34 46.26952 8.70408 0 ft 272 kts
2026-05-07 08:35 46.28850 8.70537 0 ft 274 kts
2026-05-07 08:35 46.30761 8.70666 0 ft 275 kts
2026-05-07 08:35 46.32680 8.70794 0 ft 277 kts
2026-05-07 08:35 46.34609 8.70920 0 ft 278 kts
2026-05-07 08:36 46.36549 8.71047 0 ft 280 kts
2026-05-07 08:36 46.38498 8.71172 0 ft 281 kts
2026-05-07 08:36 46.40460 8.71296 0 ft 283 kts
2026-05-07 08:36 46.42426 8.71417 0 ft 284 kts
2026-05-07 08:37 46.44405 8.71540 0 ft 285 kts
2026-05-07 08:37 46.46394 8.71662 0 ft 287 kts
2026-05-07 08:37 46.48389 8.71783 0 ft 287 kts
2026-05-07 08:37 46.50392 8.71903 0 ft 288 kts
2026-05-07 08:38 46.52401 8.72023 0 ft 289 kts
2026-05-07 08:38 46.54411 8.72141 0 ft 290 kts
2026-05-07 08:38 46.56432 8.72258 0 ft 291 kts
2026-05-07 08:38 46.58456 8.72376 0 ft 292 kts
2026-05-07 08:39 46.60491 8.72492 0 ft 293 kts
2026-05-07 08:39 46.62503 8.72605 0 ft 294 kts
2026-05-07 08:39 46.64547 8.72719 0 ft 295 kts
2026-05-07 08:39 46.66595 8.72832 0 ft 295 kts
2026-05-07 08:40 46.68650 8.72945 0 ft 296 kts
2026-05-07 08:40 46.70712 8.73057 0 ft 297 kts
2026-05-07 08:40 46.72783 8.73169 0 ft 298 kts
2026-05-07 08:40 46.74857 8.73280 0 ft 299 kts
2026-05-07 08:41 46.76937 8.73391 0 ft 300 kts
2026-05-07 08:41 46.79023 8.73502 0 ft 300 kts
2026-05-07 08:41 46.81115 8.73612 0 ft 301 kts
2026-05-07 08:41 46.83208 8.73721 0 ft 302 kts
2026-05-07 08:42 46.85312 8.73831 0 ft 303 kts
2026-05-07 08:42 46.87419 8.73940 0 ft 303 kts
2026-05-07 08:42 46.89530 8.74048 0 ft 304 kts
2026-05-07 08:42 46.91655 8.74156 0 ft 305 kts
2026-05-07 08:43 46.93772 8.74263 0 ft 306 kts
2026-05-07 08:43 46.95898 8.74370 0 ft 306 kts
2026-05-07 08:43 46.98031 8.74478 0 ft 307 kts
2026-05-07 08:43 47.00168 8.74585 0 ft 308 kts
2026-05-07 08:44 47.02312 8.74691 0 ft 308 kts
2026-05-07 08:44 47.04456 8.74797 0 ft 309 kts
2026-05-07 08:44 47.06584 8.74902 0 ft 310 kts
2026-05-07 08:44 47.08766 8.75007 0 ft 310 kts
2026-05-07 08:45 47.10925 8.75111 0 ft 311 kts
2026-05-07 08:45 47.13063 8.75215 0 ft 312 kts
2026-05-07 08:45 47.15229 8.75319 0 ft 312 kts
2026-05-07 08:45 47.17433 8.75425 0 ft 313 kts
2026-05-07 08:46 47.19610 8.75529 0 ft 313 kts
2026-05-07 08:46 47.21764 8.75632 0 ft 314 kts
2026-05-07 08:46 47.23977 8.75737 0 ft 315 kts
2026-05-07 08:46 47.26139 8.75839 0 ft 315 kts
2026-05-07 08:47 47.28334 8.75942 0 ft 316 kts
2026-05-07 08:47 47.30531 8.76045 0 ft 316 kts
2026-05-07 08:47 47.32732 8.76147 0 ft 317 kts
2026-05-07 08:47 47.34939 8.76250 0 ft 317 kts
2026-05-07 08:48 47.37149 8.76352 0 ft 318 kts
2026-05-07 08:48 47.39363 8.76454 0 ft 318 kts
2026-05-07 08:48 47.41582 8.76556 0 ft 319 kts
2026-05-07 08:48 47.43799 8.76657 0 ft 320 kts
2026-05-07 08:49 47.46023 8.76759 0 ft 320 kts
2026-05-07 08:49 47.48252 8.76860 0 ft 320 kts
2026-05-07 08:49 47.50482 8.76962 0 ft 321 kts
2026-05-07 08:49 47.52720 8.77063 0 ft 321 kts
2026-05-07 08:50 47.54954 8.77164 0 ft 322 kts
2026-05-07 08:50 47.57199 8.77265 0 ft 322 kts
2026-05-07 08:50 47.59444 8.77366 0 ft 323 kts
2026-05-07 08:50 47.61696 8.77466 0 ft 323 kts
2026-05-07 08:51 47.63941 8.77567 0 ft 324 kts
2026-05-07 08:51 47.66196 8.77667 0 ft 324 kts
2026-05-07 08:51 47.68452 8.77767 0 ft 325 kts
2026-05-07 08:51 47.70684 8.77866 0 ft 325 kts
2026-05-07 08:52 47.72948 8.77967 0 ft 325 kts
2026-05-07 08:52 47.75211 8.78066 0 ft 326 kts
2026-05-07 08:52 47.77476 8.78166 0 ft 326 kts
2026-05-07 08:52 47.79750 8.78266 0 ft 326 kts
2026-05-07 08:53 47.82016 8.78366 0 ft 327 kts
2026-05-07 08:53 47.84297 8.78465 0 ft 327 kts
2026-05-07 08:53 47.86576 8.78565 0 ft 328 kts
2026-05-07 08:53 47.88854 8.78665 0 ft 328 kts
2026-05-07 08:54 47.91135 8.78764 0 ft 328 kts
2026-05-07 08:54 47.93416 8.78863 0 ft 329 kts
2026-05-07 08:54 47.95707 8.78963 0 ft 329 kts
2026-05-07 08:54 47.97994 8.79062 0 ft 329 kts
2026-05-07 08:55 48.00287 8.79162 0 ft 330 kts
2026-05-07 08:55 48.02584 8.79261 0 ft 330 kts
2026-05-07 08:55 48.04873 8.79360 0 ft 330 kts
2026-05-07 08:55 48.07179 8.79459 0 ft 331 kts
2026-05-07 08:56 48.09480 8.79558 0 ft 331 kts
2026-05-07 08:56 48.11756 8.79659 0 ft 316 kts
2026-05-07 08:56 48.13839 8.79720 0 ft 285 kts 356°
2026-05-07 08:56 48.15658 8.79183 0 ft 257 kts 336°
2026-05-07 08:57 48.17158 8.77994 0 ft 236 kts 328°
2026-05-07 08:57 48.18565 8.76667 0 ft 247 kts 327°
2026-05-07 08:57 48.20088 8.75227 0 ft 270 kts 327°
2026-05-07 08:57 48.21727 8.73678 0 ft 281 kts 327°
2026-05-07 08:58 48.23273 8.72221 0 ft 240 kts 327°
2026-05-07 08:58 48.24636 8.70947 0 ft 239 kts 328°
2026-05-07 08:58 48.26276 8.69472 0 ft 319 kts 339°
2026-05-07 08:58 48.28717 8.68687 0 ft 385 kts 357°
2026-05-07 08:59 48.31379 8.68619 0 ft 380 kts
2026-05-07 08:59 48.34007 8.68704 0 ft 377 kts
2026-05-07 08:59 48.36625 8.68848 0 ft 375 kts
2026-05-07 08:59 48.39232 8.68972 0 ft 373 kts 354°
2026-05-07 09:00 48.41702 8.68042 0 ft 367 kts 333°
2026-05-07 09:00 48.43957 8.66240 0 ft 365 kts 330°
2026-05-07 09:00 48.46180 8.64417 0 ft 364 kts 332°
2026-05-07 09:00 48.48428 8.62672 0 ft 363 kts 333°
2026-05-07 09:01 48.50699 8.61046 0 ft 361 kts 337°
2026-05-07 09:01 48.53019 8.59597 0 ft 359 kts 337°
2026-05-07 09:01 48.55295 8.58177 0 ft 357 kts 337°
2026-05-07 09:01 48.57594 8.56758 0 ft 355 kts 337°
2026-05-07 09:02 48.59870 8.55352 0 ft 353 kts 337°
2026-05-07 09:02 48.62108 8.53971 0 ft 350 kts 337°
2026-05-07 09:02 48.64355 8.52584 0 ft 348 kts 337°
2026-05-07 09:02 48.66589 8.51201 0 ft 345 kts 337°
2026-05-07 09:03 48.68798 8.49833 0 ft 342 kts 337°
2026-05-07 09:03 48.70994 8.48474 0 ft 340 kts 338°
2026-05-07 09:03 48.73174 8.47124 0 ft 336 kts 337°
2026-05-07 09:03 48.75299 8.45801 0 ft 323 kts 337°
2026-05-07 09:04 48.77346 8.44526 0 ft 317 kts 337°
2026-05-07 09:04 48.79409 8.43244 0 ft 324 kts 337°
2026-05-07 09:04 48.81533 8.41929 0 ft 334 kts 337°
2026-05-07 09:04 48.83693 8.40583 0 ft 336 kts 337°
2026-05-07 09:05 48.85856 8.39234 0 ft 337 kts 337°
2026-05-07 09:05 48.88036 8.37874 0 ft 338 kts 337°
2026-05-07 09:05 48.90220 8.36510 0 ft 340 kts 337°
2026-05-07 09:05 48.92407 8.35142 0 ft 341 kts 337°
2026-05-07 09:06 48.94613 8.33762 0 ft 343 kts 337°
2026-05-07 09:06 48.96825 8.32379 0 ft 344 kts 339°
2026-05-07 09:06 48.99106 8.31297 0 ft 345 kts 351°
2026-05-07 09:06 49.00685 8.30945 0 ft 346 kts 353°
2026-05-07 09:07 49.03081 8.30552 0 ft 348 kts 354°
2026-05-07 09:07 49.05500 8.30204 0 ft 350 kts 354°
2026-05-07 09:07 49.07932 8.29876 0 ft 352 kts 354°
2026-05-07 09:07 49.11175 8.29441 0 ft 354 kts 354°
2026-05-07 09:08 49.12831 8.29218 0 ft 356 kts 354°
2026-05-07 09:08 49.15305 8.28886 0 ft 355 kts 354°
2026-05-07 09:08 49.17771 8.28553 0 ft 357 kts 354°
2026-05-07 09:08 49.20227 8.28222 0 ft 353 kts 354°
2026-05-07 09:09 49.22639 8.27898 0 ft 352 kts 354°
2026-05-07 09:09 49.25068 8.27571 0 ft 351 kts 354°
2026-05-07 09:09 49.27516 8.27241 0 ft 354 kts 354°
2026-05-07 09:09 49.29976 8.26909 0 ft 355 kts 354°
2026-05-07 09:10 49.32442 8.26574 0 ft 358 kts 354°
2026-05-07 09:10 49.34933 8.26237 0 ft 361 kts 354°
2026-05-07 09:10 49.37477 8.25892 0 ft 364 kts 354°
2026-05-07 09:10 49.39979 8.25553 0 ft 367 kts 354°
2026-05-07 09:11 49.42534 8.25213 0 ft 370 kts 355°
2026-05-07 09:11 49.45120 8.24878 0 ft 374 kts 355°
2026-05-07 09:11 49.47721 8.24542 0 ft 377 kts 355°
2026-05-07 09:11 49.50351 8.24200 0 ft 381 kts 355°
2026-05-07 09:12 49.52946 8.23860 0 ft 384 kts 355°
2026-05-07 09:12 49.55489 8.23523 0 ft 388 kts 355°
2026-05-07 09:12 49.58187 8.23163 0 ft 391 kts 355°
2026-05-07 09:12 49.60908 8.22796 0 ft 395 kts 354°
2026-05-07 09:13 49.63663 8.22422 0 ft 398 kts 354°
2026-05-07 09:13 49.66433 8.22044 0 ft 402 kts 354°
2026-05-07 09:13 49.69231 8.21661 0 ft 405 kts 354°
2026-05-07 09:13 49.72037 8.21275 0 ft 409 kts 354°
2026-05-07 09:14 49.74885 8.20882 0 ft 412 kts 354°
2026-05-07 09:14 49.77751 8.20486 0 ft 416 kts 354°
2026-05-07 09:14 49.80650 8.20084 0 ft 419 kts 355°
2026-05-07 09:14 49.83561 8.19683 0 ft 422 kts 355°
2026-05-07 09:15 49.86501 8.19276 0 ft 425 kts 354°
2026-05-07 09:15 49.89464 8.18862 0 ft 428 kts 354°
2026-05-07 09:15 49.92442 8.18444 0 ft 431 kts 354°
2026-05-07 09:15 49.95442 8.18021 0 ft 434 kts 354°
2026-05-07 09:16 49.98456 8.17595 0 ft 437 kts 354°
2026-05-07 09:16 50.01322 8.17189 0 ft 440 kts 354°
2026-05-07 09:16 50.04331 8.16761 0 ft 442 kts 354°
2026-05-07 09:16 50.07404 8.16322 0 ft 445 kts 354°
2026-05-07 09:17 50.10500 8.15881 0 ft 447 kts 354°
2026-05-07 09:17 50.13602 8.15460 0 ft 449 kts 355°
2026-05-07 09:17 50.16734 8.15050 0 ft 452 kts 355°
2026-05-07 09:17 50.19874 8.14644 0 ft 454 kts 355°
2026-05-07 09:18 50.22822 8.14264 0 ft 456 kts 355°
2026-05-07 09:18 50.25983 8.13858 0 ft 458 kts 355°
2026-05-07 09:18 50.29168 8.13447 0 ft 460 kts 355°
2026-05-07 09:18 50.32367 8.13033 0 ft 462 kts 355°
2026-05-07 09:19 50.35577 8.12617 0 ft 463 kts 355°
2026-05-07 09:19 50.38753 8.12202 0 ft 465 kts 355°
2026-05-07 09:19 50.42021 8.11774 0 ft 467 kts 355°
2026-05-07 09:19 50.45221 8.11352 0 ft 468 kts 355°
2026-05-07 09:20 50.48470 8.10923 0 ft 470 kts 355°
2026-05-07 09:20 50.51779 8.10483 0 ft 471 kts 355°
2026-05-07 09:20 50.55001 8.10052 0 ft 472 kts 355°
2026-05-07 09:20 50.58247 8.09328 0 ft 472 kts 344°
2026-05-07 09:21 50.61390 8.07742 0 ft 474 kts 340°
2026-05-07 09:21 50.64495 8.05967 0 ft 475 kts 339°
2026-05-07 09:21 50.67598 8.04153 0 ft 476 kts 339°
2026-05-07 09:21 50.70699 8.02346 0 ft 477 kts 339°
2026-05-07 09:22 50.73833 8.00543 0 ft 478 kts 340°
2026-05-07 09:22 50.76984 7.98926 0 ft 479 kts 349°
2026-05-07 09:22 50.80302 7.98539 0 ft 480 kts
2026-05-07 09:22 50.83528 7.99829 0 ft 480 kts 25°
2026-05-07 09:23 50.86289 8.02767 0 ft 481 kts 45°
2026-05-07 09:23 50.88276 8.07007 0 ft 481 kts 62°
2026-05-07 09:23 50.90218 8.11294 0 ft 481 kts 43°
2026-05-07 09:23 50.92959 8.14274 0 ft 479 kts 22°
2026-05-07 09:24 50.96167 8.15565 0 ft 476 kts
2026-05-07 09:24 50.99461 8.15308 0 ft 473 kts 353°
2026-05-07 09:24 51.02718 8.14437 0 ft 477 kts 349°
2026-05-07 09:24 51.05994 8.13468 0 ft 481 kts 348°
2026-05-07 09:25 51.09257 8.12139 0 ft 485 kts 344°
2026-05-07 09:25 51.12514 8.10697 0 ft 487 kts 344°
2026-05-07 09:25 51.15779 8.09235 0 ft 488 kts 344°
2026-05-07 09:25 51.19045 8.07770 0 ft 488 kts 344°
2026-05-07 09:26 51.22322 8.06304 0 ft 488 kts 344°
2026-05-07 09:26 51.25603 8.04840 0 ft 490 kts 344°
2026-05-07 09:26 51.28885 8.03378 0 ft 489 kts 344°
2026-05-07 09:26 51.32146 8.01929 0 ft 485 kts 344°
2026-05-07 09:27 51.35399 8.00516 0 ft 482 kts 348°
2026-05-07 09:27 51.38715 7.99907 0 ft 479 kts 355°
2026-05-07 09:27 51.45335 7.99591 0 ft 473 kts 359°
2026-05-07 09:28 51.48575 7.99352 0 ft 469 kts 356°
2026-05-07 09:28 51.51858 7.99044 0 ft 476 kts 356°
2026-05-07 09:28 51.55167 7.98736 0 ft 472 kts 356°
2026-05-07 09:28 51.58357 7.98447 0 ft 447 kts 356°
2026-05-07 09:29 51.61427 7.98174 0 ft 428 kts 356°
2026-05-07 09:29 51.64365 7.97917 0 ft 431 kts 356°
2026-05-07 09:29 51.67350 7.97661 0 ft 423 kts 356°
2026-05-07 09:29 51.70267 7.97418 0 ft 406 kts 357°
2026-05-07 09:30 51.73025 7.97194 0 ft 388 kts 357°
2026-05-07 09:30 51.75557 7.96994 0 ft 371 kts 357°
2026-05-07 09:30 51.78080 7.96758 0 ft 355 kts 354°
2026-05-07 09:30 51.80484 7.96332 0 ft 341 kts 353°
2026-05-07 09:31 51.82703 7.95927 0 ft 299 kts 353°
2026-05-07 09:31 51.84783 7.95549 0 ft 306 kts 353°
2026-05-07 09:31 51.86979 7.95151 0 ft 321 kts 353°
2026-05-07 09:31 51.89180 7.94760 0 ft 316 kts 353°
2026-05-07 09:32 51.91387 7.94369 0 ft 320 kts 353°
2026-05-07 09:32 51.93595 7.94032 0 ft 317 kts 356°
2026-05-07 09:32 51.95795 7.93877 0 ft 316 kts 357°
2026-05-07 09:32 51.97991 7.93746 0 ft 312 kts
2026-05-07 09:33 52.00134 7.93788 0 ft 309 kts 348°
2026-05-07 09:33 52.02075 7.92386 0 ft 309 kts 321°
2026-05-07 09:33 52.03915 7.90649 0 ft 308 kts 345°
2026-05-07 09:33 52.06037 7.90588 0 ft 310 kts 16°
2026-05-07 09:34 52.07989 7.92064 0 ft 309 kts 27°
2026-05-07 09:34 52.09662 7.94222 0 ft 308 kts 46°
2026-05-07 09:34 52.11120 7.96763 0 ft 307 kts 47°
2026-05-07 09:34 52.12616 7.99231 0 ft 306 kts 40°
2026-05-07 09:35 52.14354 8.01327 0 ft 316 kts 28°
2026-05-07 09:35 52.16465 8.02468 0 ft 333 kts
2026-05-07 09:35 52.18691 8.01819 0 ft 318 kts 334°
2026-05-07 09:35 52.20408 7.99527 0 ft 326 kts 304°
2026-05-07 09:36 52.21224 7.96175 0 ft 324 kts 275°
2026-05-07 09:36 52.20946 7.92577 0 ft 322 kts 246°
2026-05-07 09:36 52.19616 7.89652 0 ft 321 kts 217°
2026-05-07 09:36 52.17791 7.87652 0 ft 320 kts 221°
2026-05-07 09:37 52.16522 7.84754 0 ft 317 kts 249°
2026-05-07 09:37 52.15890 7.81315 0 ft 316 kts 255°
2026-05-07 09:37 52.15332 7.77914 0 ft 296 kts 255°
2026-05-07 09:37 52.14828 7.75000 0 ft 241 kts 254°
2026-05-07 09:38 52.14395 7.72511 0 ft 237 kts 255°
2026-05-07 09:38 52.13963 7.69869 0 ft 215 kts 259°
2026-05-07 09:38 52.13748 7.67750 0 ft 174 kts 250°
2026-05-07 09:38 52.12925 7.66537 0 ft 162 kts 191°
2026-05-07 09:39 52.12062 7.67375 0 ft 155 kts 107°
2026-05-07 09:39 52.12158 7.69035 0 ft 151 kts 75°
2026-05-07 09:39 52.12468 7.70907 0 ft 187 kts 75°
2026-05-07 09:39 52.12778 7.72931 0 ft 178 kts 76°
2026-05-07 09:40 52.13420 7.74510 0 ft 174 kts 17°
2026-05-07 09:40 52.14366 7.73709 0 ft 167 kts 300°
2026-05-07 09:40 52.14319 7.71740 0 ft 198 kts 245°
2026-05-07 09:40 52.13769 7.69866 0 ft 185 kts 251°
2026-05-07 09:41 52.13427 7.68138 0 ft 131 kts 252°
2026-05-07 09:41 52.13120 7.67046 0 ft 70 kts 224°
2026-05-07 09:41 52.13004 7.66981 0 ft 0 kts 129°
2026-05-07 09:42 52.12990 7.67010 0 ft 10 kts 124°
2026-05-07 09:42 52.12996 7.67185 0 ft 25 kts 68°
2026-05-07 09:42 52.13081 7.67493 0 ft 34 kts 71°
2026-05-07 09:42 52.13163 7.67858 0 ft 35 kts 71°
2026-05-07 09:43 52.13238 7.68232 0 ft 34 kts 72°
2026-05-07 09:43 52.13312 7.68594 0 ft 33 kts 69°
2026-05-07 09:43 52.13303 7.68926 0 ft 29 kts 112°
2026-05-07 09:43 52.13161 7.69077 0 ft 25 kts 161°
2026-05-07 09:44 52.13101 7.69111 0 ft 0 kts 166°